La Nava - Corral De Ayllón Airport

Jump to: basic info | weather | comments

Related pages: nearby airports | nearby navaids | notams | map

Basic information (top)

Codes: LECA
Location: lon 41.410801, lat -3.448330, elev 3,280 ft / 1,000 m msl
Status: small_airport

Weather (top)

Current conditions for Torrejón Airport 55nm (102km) S (rec'd 2014/11/01 09:00Z):

LETO 010900Z 00000KT CAVOK 11/07 Q1026 NOSIG

Airport forecast for Torrejón Airport 55nm (102km) S (rec'd 2014/11/01 06:28Z):

TAF LETO 010500Z 0106/0206 VRB05KT CAVOK TX24/0115Z TN06/0206Z

Latest comments (top)

No comments yet for La Nava - Corral De Ayllón Airport

More... (top)

See also NOTAMs and nearby airports and navaids, or visit the La Nava - Corral De Ayllón Airport page at the main OurAirports website..